Location: Centerville
(32.8776°N, 96.6203°W)
Time: 00:30:12
(UTC+00:00)

USA 215 - Pass Details

Date: 17 June 2021
Orbit: 1100 x 1107 km, 123.0° (Epoch: 01 August)

Event Time Altitude Azimuth Distance (km) Brightness Sun altitude
Rises 04:47:31 0° 37° (NE) 3,918 6.5 -28.9°
Reaches altitude 10° 04:50:02 10° 34° (NNE) 2,958 5.8 -29.1°
Maximum altitude 04:56:22 56° 318° (NW) 1,292 3.8 -29.7°
Drops below altitude 10° 05:02:42 10° 242° (WSW) 2,951 5.4 -30.2°
Sets 05:05:13 0° 238° (WSW) 3,908 6.1 -30.4°
